Wind_Speed
51 52 53 61 60 58 57 57 57 57 57 57 58 61 62 62 59 59 59 59 60 62 58 53 50 47 45 45 41 40 40 41 43 44 43 42 41 41 40 40 39 38 38 38
46 52 60 59 58 60 59 57 56 57 56 56 56 59 60 62 60 61 61 62 63 61 57 53 51 49 48 46 45 43 44 44 46 47 47 46 46 45 45 44 44 43 43 44
47 56 50 49 51 52 53 55 58 60 62 60 59 57 57 58 64 60 62 63 62 63 61 57 54 52 51 48 48 47 46 48 49 49 50 51 51 50 50 49 49 48 48 49
47 50 48 49 50 53 53 58 60 63 64 62 62 56 56 58 62 62 62 66 66 65 64 60 58 56 54 52 51 52 50 50 51 52 53 54 54 54 54 53 53 53 52 53
52 51 51 53 59 60 60 61 65 68 66 65 60 60 57 60 61 62 63 66 66 68 66 65 62 59 57 56 55 54 55 54 53 54 55 56 57 58 58 58 58 57 57 57
49 50 49 54 56 58 61 60 62 66 69 63 63 58 64 61 62 64 63 66 66 67 68 66 65 64 62 61 60 59 58 59 59 58 58 59 61 61 62 62 62 62 63 63
50 49 47 49 51 52 55 59 59 61 65 59 65 58 61 62 63 65 65 68 68 68 69 70 69 68 66 66 65 65 63 63 63 64 64 64 65 65 65 65 66 67 67 68
48 46 46 45 43 45 53 59 60 60 62 64 68 56 61 65 67 68 68 68 71 73 73 72 72 71 70 70 70 69 69 68 68 68 69 71 71 72 72 72 72 72 72 72
48 45 44 41 40 40 44 50 61 63 64 67 67 61 67 67 68 71 72 72 72 73 74 73 73 73 73 73 73 74 73 73 74 74 74 75 76 77 77 78 78 79 79 79
50 46 43 39 37 36 37 48 58 63 65 64 64 64 65 69 72 73 73 74 73 73 73 75 75 76 76 76 77 78 79 79 79 79 80 80 81 82 83 83 84 85 85 86
52 49 46 43 38 35 36 41 49 56 60 62 65 67 70 72 73 74 74 74 75 76 77 77 77 77 77 78 79 80 82 83 84 85 85 86 87 88 88 89 90 91 91 92
55 53 50 47 43 41 39 40 46 53 56 62 67 68 70 72 74 76 76 76 77 78 78 78 79 80 79 80 81 83 84 84 85 86 88 89 91 92 93 94 95 96 98 99
63 60 55 51 47 43 42 41 41 45 55 60 67 65 69 72 73 75 77 78 78 80 80 81 82 82 82 84 85 85 87 87 88 90 91 92 93 94 95 97 99 100 102 104
69 66 61 55 53 52 49 49 49 50 53 55 61 67 67 72 75 76 77 79 82 83 84 84 84 86 87 89 90 91 91 92 93 94 95 97 98 99 100 101 102 103 105 106
73 70 66 62 60 58 55 56 55 55 54 58 60 67 70 73 75 78 79 80 81 83 83 85 87 89 90 92 94 95 97 98 99 101 102 102 103 104 106 107 108 109 110 111
76 75 71 68 67 65 63 62 60 60 60 59 60 63 68 74 76 79 81 83 84 86 86 88 89 91 92 94 96 99 100 101 103 104 105 107 108 109 111 112 113 114 116 117
82 81 77 74 72 71 71 67 67 67 65 66 66 66 68 70 73 75 78 82 85 87 90 93 95 97 99 100 101 102 103 105 107 108 110 111 113 114 116 117 118 120 121 123
86 84 82 81 79 80 74 73 72 70 70 70 70 70 71 72 75 78 80 83 85 88 90 92 94 97 99 101 104 105 107 109 111 112 114 115 117 118 120 122 124 126 128 130
90 90 87 86 85 83 82 78 75 74 73 74 75 76 77 79 81 82 85 86 89 91 94 96 99 101 102 105 107 109 111 114 115 117 120 121 123 125 127 129 131 132 134 135
92 90 90 91 91 89 88 82 81 81 81 82 83 84 85 85 86 87 89 91 93 95 97 98 101 102 105 107 109 112 113 115 116 119 121 123 125 127 129 131 133 135 137 139
96 93 93 95 95 94 90 88 89 90 89 90 89 89 89 90 91 93 94 95 97 99 101 103 106 107 109 110 113 116 118 119 121 123 126 129 132 133 136 138 141 143 145 147
88 92 92 92 95 98 97 96 95 94 94 94 95 95 95 96 97 97 98 101 103 105 107 109 112 114 115 117 119 122 125 125 127 130 133 137 140 142 144 145 146 148 148 149
82 85 90 94 92 91 93 94 96 97 98 97 97 99 101 101 102 102 103 106 108 108 110 112 115 118 121 122 124 127 130 131 132 134 136 138 139 139 138 137 136 136 135 133
80 82 83 87 92 95 94 94 94 95 96 98 98 96 97 98 100 102 104 106 109 112 114 114 116 119 123 124 125 127 129 130 129 129 130 130 130 129 129 128 127 126 127 127
77 80 82 82 84 85 87 90 93 95 97 98 99 100 102 103 105 106 108 108 109 110 111 114 117 119 121 120 121 122 121 121 121 121 123 123 123 123 122 121 120 119 119 118
76 78 80 82 81 81 84 86 88 89 89 89 90 92 94 96 96 96 97 99 101 104 105 108 110 111 112 113 115 117 116 115 114 114 115 114 113 114 113 111 111 113 111 112
Wind_Direction
231 234 231 230 231 231 232 236 237 235 233 233 233 234 231 229 230 233 234 235 235 237 238 239 241 243 247 242 240 237 236 237 239 237 235 236 237 239 240 242 242 241 243 244
233 233 234 236 235 236 238 236 236 235 232 230 231 230 229 227 224 232 233 233 234 233 234 236 238 240 244 241 239 237 238 237 240 241 240 240 241 241 242 244 244 245 244 246
233 235 236 237 237 237 236 235 234 232 231 232 231 230 230 229 224 227 235 236 235 234 233 235 237 239 241 241 241 239 239 239 240 242 242 242 243 244 245 246 247 248 248 248
234 239 238 239 241 243 242 240 237 233 232 230 229 227 228 227 227 226 232 234 234 234 235 235 236 239 240 241 242 241 240 241 241 242 243 245 245 246 247 248 249 251 252 252
239 241 244 244 243 240 238 236 234 233 230 227 226 226 230 228 227 226 232 234 236 236 235 236 237 240 241 241 243 243 243 243 244 244 245 246 247 249 249 250 251 252 253 254
239 244 246 245 247 242 242 238 232 231 227 225 227 225 230 230 228 226 232 236 239 240 239 238 239 239 240 242 242 244 245 246 246 247 248 248 249 250 251 252 253 254 254 255
240 246 248 252 249 244 239 237 232 234 229 222 228 226 228 230 229 227 230 235 236 238 239 240 240 241 241 243 244 246 247 247 248 249 249 250 251 252 253 253 254 255 257 257
241 244 247 250 247 241 231 228 225 226 223 223 229 224 226 228 227 228 229 233 236 237 239 241 241 242 244 245 246 247 249 249 249 250 251 251 251 252 253 254 255 256 257 258
241 245 248 252 250 244 236 228 225 222 220 220 226 223 226 229 229 229 231 233 235 238 240 241 242 244 246 247 249 250 250 251 252 252 252 253 253 254 254 255 255 256 257 258
239 242 247 250 252 245 238 232 227 224 223 224 226 225 226 229 230 232 234 235 237 240 241 243 244 245 246 248 249 250 252 252 252 254 254 255 255 256 257 257 257 257 258 259
237 239 243 246 249 245 237 236 233 229 225 225 222 223 226 230 232 234 235 236 237 239 241 243 245 247 248 250 251 252 253 254 255 255 255 256 256 257 257 258 259 259 260 260
235 237 238 242 243 245 240 236 236 232 228 225 222 223 228 231 234 236 237 238 239 241 243 244 247 248 250 252 253 254 255 256 257 258 258 258 258 258 258 258 259 260 261 262
233 235 236 238 241 245 245 243 239 238 235 228 227 225 232 234 236 239 240 242 242 243 244 245 247 249 251 253 254 256 257 258 258 259 259 260 261 261 261 261 261 262 262 262
236 236 235 235 235 238 239 239 239 235 233 233 230 229 233 236 237 239 242 243 245 246 247 248 250 251 252 253 254 255 256 257 258 258 259 260 260 260 261 262 262 263 264 264
237 238 237 235 235 236 239 241 242 243 240 236 233 232 234 236 238 240 242 245 247 249 251 253 253 253 254 255 256 257 258 259 259 259 260 261 262 262 263 263 264 265 265 265
235 236 237 237 238 236 237 239 241 243 245 244 240 239 239 239 239 241 242 245 247 248 250 251 253 254 256 257 258 259 260 261 262 263 264 265 265 266 266 267 267 268 268 268
235 237 237 237 237 238 238 239 240 241 242 244 245 244 243 244 246 247 248 248 249 250 251 252 253 254 255 257 259 260 261 262 263 264 265 266 266 267 268 269 269 269 269 269
237 238 239 239 238 240 240 239 240 243 246 247 249 251 251 250 250 249 250 250 251 251 253 254 255 256 257 258 260 261 262 263 264 265 266 267 267 268 269 269 269 269 269 270
236 238 240 242 242 241 240 242 243 243 244 246 248 249 250 251 252 252 254 255 256 257 258 259 260 261 262 263 263 264 265 265 266 267 268 269 269 270 270 270 270 270 271 271
234 236 238 241 244 246 243 241 243 245 247 248 248 249 250 252 253 255 256 257 258 259 260 262 262 263 264 265 266 266 267 268 269 269 270 270 270 270 271 271 271 272 272 272
232 234 238 240 241 244 246 248 247 246 247 248 250 251 253 255 257 258 259 260 261 262 262 263 264 265 266 267 268 269 269 269 271 272 272 272 272 273 273 273 273 273 273 272
234 233 234 238 242 243 244 246 247 250 252 254 256 257 258 259 260 260 261 262 263 264 266 267 267 268 269 269 270 271 271 272 273 273 274 274 274 274 274 274 274 274 274 274
235 236 235 237 239 244 248 249 249 249 251 253 255 257 259 260 261 262 262 262 265 267 270 271 271 271 271 272 273 274 275 275 276 276 277 277 277 277 277 277 277 277 277 277
235 236 237 239 240 242 245 248 250 252 254 256 258 259 260 262 264 265 266 266 268 270 272 274 274 275 275 275 276 277 278 279 279 279 279 279 280 281 281 281 280 280 279 279
235 237 240 240 241 243 246 248 251 253 255 256 258 260 262 263 265 267 269 271 272 272 273 274 275 276 278 279 280 279 279 279 280 280 281 281 282 282 282 282 281 281 281 280
236 236 239 243 244 244 246 248 249 252 255 258 260 261 262 264 266 268 269 271 272 273 275 277 278 278 279 280 280 281 282 283 283 283 283 283 283 283 283 283 283 283 281 281
Height
10485 10493 10499 10496 10506 10514 10521 10527 10536 10542 10548 10553 10560 10566 10572 10580 10587 10594 10600 10607 10612 10616 10621 10625 10629 10633 10637 10640 10643 10647 10651 10654 10657 10661 10663 10666 10669 10671 10673 10675 10677 10680 10682 10685
10477 10480 10478 10488 10497 10505 10512 10518 10526 10531 10536 10542 10546 10551 10558 10567 10574 10582 10589 10594 10600 10605 10609 10614 10618 10622 10626 10630 10634 10637 10641 10645 10648 10651 10654 10657 10660 10662 10665 10667 10669 10672 10674 10676
10466 10462 10473 10480 10487 10494 10500 10506 10512 10517 10520 10527 10533 10541 10550 10557 10563 10571 10578 10584 10589 10594 10598 10602 10607 10611 10615 10619 10623 10626 10630 10634 10637 10640 10644 10647 10649 10652 10654 10656 10659 10661 10664 10666
10455 10457 10465 10470 10476 10481 10487 10490 10496 10501 10507 10515 10520 10535 10540 10546 10554 10560 10566 10572 10576 10581 10586 10590 10595 10599 10603 10607 10611 10615 10618 10622 10625 10628 10632 10635 10637 10640 10642 10644 10647 10649 10652 10654
10442 10449 10456 10460 10458 10462 10468 10471 10477 10484 10494 10501 10514 10524 10532 10536 10545 10548 10554 10560 10565 10569 10574 10578 10582 10586 10591 10595 10598 10602 10606 10609 10613 10616 10619 10622 10625 10627 10629 10631 10634 10636 10638 10640
10435 10438 10443 10442 10443 10448 10453 10462 10466 10470 10480 10495 10503 10514 10518 10527 10531 10538 10545 10550 10554 10559 10563 10567 10570 10574 10577 10581 10585 10588 10592 10596 10599 10603 10606 10609 10611 10613 10616 10617 10619 10621 10623 10625
10422 10427 10430 10430 10431 10437 10442 10448 10456 10462 10474 10492 10490 10503 10513 10516 10521 10527 10532 10537 10542 10545 10548 10551 10555 10559 10563 10567 10571 10574 10577 10581 10584 10588 10591 10594 10596 10598 10600 10602 10604 10605 10607 10608
10412 10417 10416 10416 10419 10420 10424 10430 10443 10451 10464 10474 10474 10497 10503 10501 10505 10510 10515 10520 10524 10528 10532 10536 10541 10545 10549 10552 10556 10560 10563 10565 10568 10571 10573 10576 10579 10581 10583 10585 10587 10588 10590 10591
10401 10407 10406 10406 10407 10410 10416 10426 10427 10438 10448 10456 10466 10481 10484 10489 10492 10495 10500 10504 10509 10514 10519 10523 10527 10531 10534 10538 10541 10544 10547 10550 10552 10554 10556 10558 10560 10562 10564 10566 10567 10569 10570 10571
10390 10394 10396 10397 10397 10404 10408 10407 10415 10428 10439 10451 10461 10470 10477 10473 10475 10481 10486 10491 10498 10502 10506 10509 10512 10515 10518 10521 10524 10527 10530 10532 10534 10536 10538 10539 10541 10543 10544 10545 10547 10548 10550 10551
10379 10383 10385 10387 10391 10394 10399 10402 10408 10415 10428 10440 10448 10456 10458 10459 10463 10467 10472 10478 10482 10485 10488 10492 10496 10499 10502 10505 10507 10509 10511 10513 10515 10516 10518 10519 10521 10522 10523 10524 10525 10526 10527 10527
10366 10370 10374 10378 10381 10385 10390 10394 10398 10404 10416 10423 10430 10440 10442 10446 10448 10452 10456 10460 10465 10470 10474 10477 10480 10482 10485 10486 10488 10490 10492 10493 10494 10495 10496 10497 10498 10499 10500 10501 10501 10502 10503 10503
10352 10357 10363 10367 10374 10378 10381 10385 10390 10396 10400 10412 10417 10433 10429 10431 10433 10436 10440 10444 10448 10451 10455 10457 10460 10463 10466 10468 10469 10470 10470 10471 10472 10472 10473 10473 10474 10475 10475 10475 10476 10476 10477 10477
10335 10343 10352 10359 10361 10364 10368 10371 10374 10378 10385 10396 10405 10409 10412 10413 10417 10421 10424 10425 10428 10432 10436 10441 10443 10445 10447 10447 10448 10448 10449 10449 10449 10449 10449 10449 10449 10450 10449 10449 10450 10450 10449 10449
10321 10330 10337 10343 10347 10352 10357 10360 10364 10368 10374 10379 10388 10392 10396 10399 10401 10404 10408 10410 10413 10416 10419 10421 10422 10423 10425 10426 10426 10426 10426 10425 10425 10425 10425 10425 10425 10425 10424 10423 10423 10422 10421 10420
10306 10312 10320 10327 10333 10337 10341 10346 10350 10355 10360 10365 10371 10376 10380 10382 10385 10387 10390 10393 10396 10398 10399 10400 10401 10402 10402 10402 10401 10401 10402 10402 10400 10400 10399 10399 10398 10396 10395 10393 10392 10391 10389 10388
10287 10293 10302 10310 10315 10320 10325 10334 10336 10340 10345 10348 10353 10358 10361 10365 10368 10372 10375 10376 10376 10377 10379 10378 10378 10378 10378 10379 10378 10377 10377 10376 10374 10373 10372 10371 10369 10367 10365 10362 10360 10358 10355 10352
10270 10276 10282 10290 10297 10297 10315 10316 10322 10327 10331 10335 10338 10342 10345 10348 10350 10350 10352 10353 10352 10353 10354 10355 10355 10355 10355 10354 10353 10352 10352 10349 10347 10346 10342 10342 10339 10336 10333 10329 10325 10322 10319 10315
10250 10257 10263 10268 10275 10284 10293 10301 10306 10311 10314 10317 10320 10323 10325 10326 10328 10329 10330 10332 10332 10333 10333 10333 10333 10332 10331 10330 10327 10324 10324 10320 10320 10317 10311 10310 10306 10301 10296 10291 10287 10283 10281 10275
10231 10239 10245 10252 10256 10261 10270 10284 10290 10292 10296 10297 10299 10301 10303 10305 10307 10309 10310 10311 10311 10310 10310 10309 10307 10305 10303 10301 10297 10294 10293 10290 10291 10282 10277 10272 10268 10265 10258 10253 10248 10243 10239 10236
10210 10219 10226 10229 10236 10243 10253 10258 10262 10268 10275 10275 10280 10283 10285 10287 10288 10288 10288 10288 10288 10286 10285 10282 10280 10278 10276 10274 10269 10263 10259 10259 10255 10250 10242 10234 10228 10224 10217 10211 10205 10199 10194 10189
10189 10197 10206 10210 10215 10222 10230 10236 10243 10246 10251 10254 10257 10260 10262 10264 10265 10265 10265 10263 10262 10260 10259 10256 10253 10249 10248 10244 10240 10231 10224 10226 10220 10214 10204 10194 10185 10177 10173 10168 10160 10153 10147 10140
10169 10178 10186 10191 10199 10205 10208 10215 10221 10226 10230 10233 10235 10236 10237 10240 10242 10242 10239 10237 10236 10236 10234 10229 10223 10217 10212 10210 10206 10197 10188 10185 10180 10172 10162 10151 10141 10131 10124 10120 10113 10106 10097 10090
10150 10158 10165 10171 10180 10186 10192 10195 10199 10204 10208 10211 10213 10215 10216 10217 10217 10216 10214 10213 10210 10208 10206 10201 10194 10186 10174 10174 10168 10162 10153 10145 10139 10129 10116 10106 10098 10088 10080 10072 10065 10059 10050 10042
10132 10140 10147 10155 10161 10166 10172 10177 10180 10183 10186 10189 10192 10193 10193 10192 10192 10192 10191 10188 10184 10180 10176 10169 10162 10155 10145 10139 10130 10119 10114 10109 10101 10091 10080 10069 10060 10048 10039 10029 10021 10013 10003 9998
10114 10122 10129 10134 10142 10148 10153 10157 10160 10163 10167 10170 10172 10171 10170 10170 10169 10169 10166 10161 10157 10153 10148 10141 10132 10125 10116 10107 10094 10082 10078 10071 10063 10053 10043 10032 10023 10011 10002 9993 9983 9970 9967 9957